Change the Weather History Date:

Tuesday, January 3, 2012

  Actual Average Record
Temperature  
Mean Temperature 9 °F -  
Max Temperature 10 °F 34 °F 60 °F (2004)
Min Temperature 8 °F 21 °F 1 °F (2014)
Degree Days  
Heating Degree Days 56    
Moisture  
Dew Point 5 °F    
Average Humidity 84    
Maximum Humidity 92    
Minimum Humidity 62    
Precipitation  
Precipitation 0.00 in - - ()
Sea Level Pressure  
Sea Level Pressure 29.91 in    
Wind  
Wind Speed 17 mph (WNW)    
Max Wind Speed 30 mph    
Max Gust Speed 41 mph    
Visibility 4 miles    
Events Snow    
Averages and records for this station are not official NWS values.
T = Trace of Precipitation, MM = Missing Value Source: NWS Daily Summary

Daily Weather History Graph

Daily Weather History Graph

Search for Another Location

Airport or City:

Trip Planner

Search our weather history database for the weather conditions in past years. The results will help you decide how hot, cold, wet, or windy it might be!

Date:

Astronomy

Jan. 03, 2012 Rise Set
Actual Time 7:35 AM EST 5:12 PM EST
Civil Twilight 7:06 AM EST 5:41 PM EST
Nautical Twilight 6:33 AM EST 6:14 PM EST
Astronomical Twilight 6:01 AM EST 6:46 PM EST
Moon 12:57 PM EST 2:26 AM EST
Length of Visible Light 10h 35m
Length of Day
9h 36m
Waxing Gibbous, 72% of the Moon is Illuminated
Jan 3
Waxing Gibbous
Jan 9
Full
Jan 16
Last Quarter
Jan 23
New
Jan 30
First Quarter

Hourly Weather History & Observations

Time (EST) Temp. Windchill Dew Point Humidity Pressure Visibility Wind Dir Wind Speed Gust Speed Precip Events Conditions
12:16 AM 10.4 °F -8.6 °F 6.8 °F 85% 29.82 in 10.0 mi WNW 20.7 mph 32.2 mph N/A   Mostly Cloudy
12:36 AM 10.4 °F -6.6 °F 6.8 °F 85% 29.83 in 10.0 mi WNW 16.1 mph 27.6 mph N/A   Overcast
12:56 AM 10.4 °F -4.8 °F 6.8 °F 85% 29.82 in 10.0 mi WNW 12.7 mph 26.5 mph N/A   Overcast
1:16 AM 10.4 °F -7.2 °F 6.8 °F 85% 29.82 in 10.0 mi WNW 17.3 mph 26.5 mph N/A   Overcast
1:37 AM 10.4 °F -4.8 °F 6.8 °F 85% 29.83 in 10.0 mi WNW 12.7 mph 23.0 mph N/A   Overcast
1:56 AM 10.4 °F -5.4 °F 8.6 °F 92% 29.84 in 7.0 mi WNW 13.8 mph 24.2 mph N/A   Overcast
2:16 AM 10.4 °F -5.4 °F 8.6 °F 92% 29.83 in 4.0 mi West 13.8 mph 26.5 mph N/A Snow Light Snow
2:36 AM 10.4 °F -4.1 °F 8.6 °F 92% 29.84 in 5.0 mi WNW 11.5 mph 20.7 mph N/A   Overcast
2:56 AM 10.4 °F -6.0 °F 8.6 °F 92% 29.85 in 3.0 mi West 15.0 mph 23.0 mph N/A Snow Light Snow
3:16 AM 10.4 °F -5.4 °F 8.6 °F 92% 29.85 in 2.0 mi WNW 13.8 mph 20.7 mph N/A Snow Light Snow
3:36 AM 10.4 °F -4.8 °F 8.6 °F 92% 29.84 in 7.0 mi West 12.7 mph 20.7 mph N/A Snow Light Snow
3:56 AM 10.4 °F -7.2 °F 8.6 °F 92% 29.84 in 10.0 mi West 17.3 mph 24.2 mph N/A   Overcast
4:16 AM 10.4 °F -6.6 °F 8.6 °F 92% 29.85 in 5.0 mi West 16.1 mph 21.9 mph N/A Snow Light Snow
4:36 AM 10.4 °F -8.2 °F 8.6 °F 92% 29.84 in 5.0 mi West 19.6 mph 26.5 mph N/A Snow Light Snow
4:56 AM 10.4 °F -6.6 °F 8.6 °F 92% 29.84 in 2.0 mi West 16.1 mph 21.9 mph N/A Snow Light Snow
5:16 AM 10.4 °F -6.0 °F 8.6 °F 92% 29.85 in 1.8 mi West 15.0 mph 23.0 mph N/A Snow Light Snow
5:36 AM 10.4 °F -4.1 °F 8.6 °F 92% 29.85 in 1.0 mi WNW 11.5 mph 21.9 mph N/A Snow Light Snow
6:36 AM 10.4 °F -6.6 °F 8.6 °F 92% 29.87 in 1.5 mi WNW 16.1 mph 25.3 mph N/A Snow Light Snow
6:56 AM 10.4 °F -7.7 °F 8.6 °F 92% 29.87 in 1.0 mi West 18.4 mph 24.2 mph N/A Snow Light Snow
7:16 AM 10.4 °F -7.2 °F 8.6 °F 92% 29.87 in 0.8 mi West 17.3 mph 24.2 mph N/A Snow Light Snow
7:36 AM 10.4 °F -6.0 °F 8.6 °F 92% 29.87 in 0.8 mi WNW 15.0 mph 29.9 mph N/A Snow Light Snow
7:56 AM 10.4 °F -8.6 °F 6.8 °F 85% 29.88 in 1.2 mi WNW 20.7 mph 27.6 mph N/A Snow Light Snow
8:16 AM 10.4 °F -7.7 °F 6.8 °F 85% 29.90 in 0.8 mi WNW 18.4 mph 29.9 mph N/A Snow Light Snow
8:36 AM 10.4 °F -7.2 °F 6.8 °F 85% 29.90 in 1.0 mi WNW 17.3 mph 25.3 mph N/A Snow Light Snow
8:56 AM 8.6 °F -10.5 °F 6.8 °F 92% 29.91 in 0.5 mi WNW 19.6 mph 28.8 mph N/A Snow Light Snow
9:16 AM 8.6 °F -10.0 °F 6.8 °F 92% 29.91 in 0.5 mi WNW 18.4 mph 31.1 mph N/A Snow Light Snow
9:36 AM 8.6 °F -11.4 °F 6.8 °F 92% 29.92 in 1.0 mi WNW 21.9 mph 27.6 mph N/A Snow Light Snow
9:57 AM 8.6 °F -10.5 °F 6.8 °F 92% 29.92 in 1.5 mi WNW 19.6 mph 29.9 mph N/A Snow Light Snow
10:16 AM 8.6 °F -10.0 °F 6.8 °F 92% 29.93 in 1.5 mi WNW 18.4 mph 31.1 mph N/A   Overcast
10:36 AM 8.6 °F -10.5 °F 6.8 °F 92% 29.92 in 3.0 mi WNW 19.6 mph 29.9 mph N/A   Overcast
10:56 AM 8.6 °F -11.9 °F 6.8 °F 92% 29.92 in 1.5 mi WNW 23.0 mph 36.8 mph N/A   Overcast
11:16 AM 10.4 °F -8.6 °F 3.2 °F 73% 29.91 in 1.8 mi WNW 20.7 mph 34.5 mph N/A   Haze
11:36 AM 10.4 °F -6.6 °F 1.4 °F 67% 29.90 in 4.0 mi WNW 16.1 mph 36.8 mph N/A   Haze
12:16 PM 10.4 °F -10.3 °F 3.2 °F 73% 29.90 in 2.5 mi West 25.3 mph 34.5 mph N/A   Haze
12:36 PM 10.4 °F -11.7 °F 1.4 °F 67% 29.90 in 4.0 mi West 29.9 mph 36.8 mph N/A   Haze
12:56 PM 10.4 °F -9.5 °F 1.4 °F 67% 29.89 in 7.0 mi WNW 23.0 mph 38.0 mph N/A   Mostly Cloudy
1:19 PM 8.6 °F -10.0 °F -0.4 °F 67% 29.89 in 7.0 mi WNW 18.4 mph 35.7 mph N/A   Mostly Cloudy
1:37 PM 8.6 °F -8.9 °F 1.4 °F 73% 29.89 in 5.0 mi WNW 16.1 mph 33.4 mph N/A   Haze
1:57 PM 8.6 °F -7.0 °F 1.4 °F 73% 29.90 in 10.0 mi NW 12.7 mph 27.6 mph N/A   Overcast
2:16 PM 8.6 °F -11.0 °F 1.4 °F 73% 29.89 in 5.0 mi WNW 20.7 mph 38.0 mph N/A   Haze
2:36 PM 10.4 °F -6.6 °F 1.4 °F 67% 29.89 in 7.0 mi WNW 16.1 mph 23.0 mph N/A   Overcast
2:56 PM 10.4 °F -10.7 °F -0.4 °F 62% 29.89 in 10.0 mi WNW 26.5 mph 41.4 mph N/A   Overcast
3:16 PM 10.4 °F -8.6 °F 1.4 °F 67% 29.90 in 10.0 mi NW 20.7 mph 33.4 mph N/A   Overcast
3:36 PM 8.6 °F -10.0 °F 1.4 °F 73% 29.91 in 4.0 mi NW 18.4 mph 36.8 mph N/A Snow Light Snow
4:15 PM 8.6 °F -11.4 °F 1.4 °F 73% 29.92 in 2.5 mi NW 21.9 mph 35.7 mph N/A   Haze
4:35 PM 8.6 °F -10.5 °F 1.4 °F 73% 29.94 in 5.0 mi WNW 19.6 mph 33.4 mph N/A   Haze
4:55 PM 8.6 °F -11.0 °F 1.4 °F 73% 29.95 in 5.0 mi WNW 20.7 mph 34.5 mph N/A   Haze
5:15 PM 8.6 °F -9.5 °F 1.4 °F 73% 29.96 in 7.0 mi WNW 17.3 mph 25.3 mph N/A   Overcast
5:35 PM 8.6 °F -8.3 °F 3.2 °F 79% 29.97 in 5.0 mi WNW 15.0 mph 25.3 mph N/A   Haze
6:15 PM 8.6 °F -8.3 °F 3.2 °F 79% 30.00 in 5.0 mi WNW 15.0 mph 27.6 mph N/A   Haze
6:35 PM 8.6 °F -8.9 °F 3.2 °F 79% 30.01 in 7.0 mi WNW 16.1 mph 23.0 mph N/A   Overcast
6:56 PM 8.6 °F -10.5 °F 3.2 °F 79% 30.01 in 5.0 mi WNW 19.6 mph 26.5 mph N/A   Haze
7:15 PM 8.6 °F -8.3 °F 3.2 °F 79% 30.01 in 3.0 mi WNW 15.0 mph 28.8 mph N/A Snow Light Snow
7:35 PM 8.6 °F -10.0 °F 5.0 °F 85% 30.02 in 3.0 mi NW 18.4 mph 26.5 mph N/A Snow Light Snow
7:57 PM 8.6 °F -6.3 °F 6.8 °F 92% 30.02 in 4.0 mi WNW 11.5 mph 23.0 mph N/A Snow Light Snow
8:15 PM 8.6 °F -8.3 °F 6.8 °F 92% 30.03 in 2.5 mi WNW 15.0 mph 19.6 mph N/A Snow Light Snow
8:38 PM 8.6 °F -10.5 °F 6.8 °F 92% 30.02 in 3.0 mi West 19.6 mph 31.1 mph N/A   Overcast
8:57 PM 8.6 °F -9.5 °F 6.8 °F 92% 30.03 in 4.0 mi WNW 17.3 mph 28.8 mph N/A Snow Light Snow
9:15 PM 8.6 °F -9.5 °F 6.8 °F 92% 30.03 in 5.0 mi WNW 17.3 mph 26.5 mph N/A   Overcast
9:36 PM 8.6 °F -10.5 °F 5.0 °F 85% 30.03 in 7.0 mi WNW 19.6 mph 29.9 mph N/A   Overcast
9:55 PM 8.6 °F -10.5 °F 5.0 °F 85% 30.02 in 10.0 mi WNW 19.6 mph 27.6 mph N/A   Overcast
10:15 PM 8.6 °F -9.5 °F 5.0 °F 85% 30.03 in 10.0 mi West 17.3 mph 27.6 mph N/A   Overcast
10:36 PM 8.6 °F -8.9 °F 5.0 °F 85% 30.04 in 10.0 mi WNW 16.1 mph 26.5 mph N/A   Overcast
10:55 PM 8.6 °F -11.9 °F 5.0 °F 85% 30.03 in 10.0 mi West 23.0 mph 31.1 mph N/A   Overcast
11:16 PM 8.6 °F -9.5 °F 5.0 °F 85% 30.02 in 10.0 mi WNW 17.3 mph 28.8 mph N/A   Overcast
11:35 PM 8.6 °F -9.5 °F 5.0 °F 85% 30.03 in 10.0 mi WNW 17.3 mph 23.0 mph N/A   Mostly Cloudy
11:55 PM 8.6 °F -8.9 °F 5.0 °F 85% 30.03 in 10.0 mi WNW 16.1 mph 24.2 mph N/A   Scattered Clouds